| time (UTC) | temp C | wind direction | speed KPH | gust KPH | rain 1hr cm | rain 24hr cm | rain mn cm | humidity % | barometer mb |
| 20260504192007 | 16 | 153 | 6.4 | 9.7 | 0.00 | 0.05 | 0.03 | 79 | 1003.8 |
| 20260504191307 | 16 | 266 | 6.4 | 9.7 | 0.00 | 0.05 | 0.03 | 78 | 1003.9 |
| 20260504190607 | 16 | 275 | 4.8 | 9.7 | 0.00 | 0.05 | 0.03 | 78 | 1003.8 |
| 20260504185907 | 16 | 252 | 0.0 | 6.4 | 0.00 | 0.05 | 0.03 | 78 | 1003.6 |
| 20260504185207 | 16 | 230 | 1.6 | 6.4 | 0.00 | 0.05 | 0.03 | 78 | 1003.6 |
| 20260504184507 | 16 | 303 | 1.6 | 3.2 | 0.00 | 0.05 | 0.03 | 78 | 1003.5 |
| 20260504183807 | 16 | 270 | 0.0 | 3.2 | 0.00 | 0.05 | 0.03 | 77 | 1003.4 |
| 20260504183107 | 16 | 0 | 0.0 | 0.0 | 0.00 | 0.05 | 0.03 | 76 | 1003.5 |
| 20260504182407 | 16 | 0 | 0.0 | 0.0 | 0.00 | 0.05 | 0.03 | 75 | 1003.5 |
| 20260504181707 | 16 | 0 | 0.0 | 0.0 | 0.00 | 0.05 | 0.03 | 74 | 1003.3 |
| 20260504181007 | 17 | 225 | 0.0 | 3.2 | 0.00 | 0.05 | 0.03 | 74 | 1003.2 |
| 20260504180307 | 17 | 245 | 1.6 | 3.2 | 0.00 | 0.05 | 0.03 | 74 | 1003.2 |
| 20260504175607 | 17 | 225 | 0.0 | 3.2 | 0.00 | 0.05 | 0.03 | 71 | 1002.7 |
| 20260504174907 | 17 | 0 | 0.0 | 0.0 | 0.00 | 0.05 | 0.03 | 71 | 1002.9 |
| 20260504174207 | 17 | 225 | 0.0 | 1.6 | 0.00 | 0.05 | 0.03 | 70 | 1003.1 |
| 20260504173507 | 17 | 225 | 0.0 | 1.6 | 0.00 | 0.05 | 0.03 | 70 | 1003.1 |
| 20260504172807 | 17 | 210 | 1.6 | 4.8 | 0.00 | 0.05 | 0.03 | 69 | 1003.2 |
| 20260504172107 | 18 | 198 | 3.2 | 4.8 | 0.00 | 0.05 | 0.03 | 67 | 1003.2 |
| 20260504171407 | 18 | 198 | 1.6 | 4.8 | 0.00 | 0.05 | 0.03 | 65 | 1003.1 |
| 20260504170707 | 18 | 0 | 0.0 | 0.0 | 0.00 | 0.05 | 0.03 | 66 | 1003.1 |
| 20260504160407 | 21 | 104 | 6.4 | 8.0 | 0.00 | 0.05 | 0.03 | 60 | 1003.3 |
| 20260504150808 | 17 | 270 | 0.0 | 1.6 | 0.03 | 0.05 | 0.03 | 71 | 1003.6 |
| 20260504150108 | 17 | 225 | 0.0 | 1.6 | 0.03 | 0.05 | 0.03 | 70 | 1003.6 |
| 20260504141208 | 18 | 225 | 1.6 | 4.8 | 0.00 | 0.03 | 0.00 | 64 | 1004.0 |
| 20260504140508 | 18 | 207 | 0.0 | 3.2 | 0.00 | 0.03 | 0.00 | 66 | 1003.9 |
| 20260504130208 | 19 | 197 | 4.8 | 8.0 | 0.00 | 0.03 | 0.00 | 66 | 1004.1 |
| 20260504110309 | 21 | 225 | 0.0 | 3.2 | 0.00 | 0.03 | 0.00 | 63 | 1004.1 |
| 20260504081509 | 18 | 270 | 0.0 | 3.2 | 0.00 | 0.03 | 0.00 | 67 | 1004.5 |
| 20260504080809 | 18 | 292 | 0.0 | 3.2 | 0.00 | 0.03 | 0.00 | 67 | 1004.4 |
| 20260504080114 | 19 | 0 | 0.0 | 0.0 | 0.00 | 0.03 | 0.00 | 65 | 1004.3 |